Regional Weather Roundup
Issued by NWS

Home | Current Version | Previous Version | Text Only | Print | Product List | Glossary On
Versions: 1 2 3 4 5 6 7 8 9 10 11 12 13 14 15 16 17 18 19 20 21 22 23 24 25 26 27 28 29 30 31 32 33 34 35 36 37 38 39 40 41 42 43 44 45 46 47 48 49 50
726
ASUS42 KKEY 270610
RWRKEY

FLORIDA REGIONAL WEATHER ROUNDUP FOR THE FLORIDA KEYS
NATIONAL WEATHER SERVICE KEY WEST FLORIDA
200 AM EDT MON MAR 27 2017

...SOUTH FLORIDA AND THE KEYS...

CITY           SKY/WX    TMP DP  RH WIND       PRES   REMARKS
FORT MYERS     MOCLDY    70  61  73 S3        30.08F
SW REGIONAL AP CLEAR     66  59  78 CALM      30.08F
NAPLES         CLEAR     66  61  84 CALM      30.08S
MIAMI          PTCLDY    71  61  70 NE3       30.06F
WEST KENDALL   PTCLDY    66  61  84 CALM      30.06F
HOMESTEAD      PTCLDY    71  63  75 E8        30.05F
MARATHON       CLEAR     75  63  66 E8        30.04F
BOCA CHICA NAS CLEAR     73  65  75 E9        30.05F
KEY WEST INTL  CLEAR     74  66  76 E8        30.05F

...INTERNATIONAL WEATHER...

CITY           SKY/WX    TMP DP  RH WIND       PRES   REMARKS
NASSAU BAHAMAS PTCLDY    73  66  78 NE7       30.05F
CANCUN MEXICO  PTCLDY    77  70  78 E6        29.99F
COZUMEL MEXICO   N/A    N/A N/A N/A MISG        N/A

ADJACENT COASTAL WATERS...

STATION/POSITION TIME  SKY/WX   TEMP    WIND        PRES    WAVE
                                AIR SEA DIR/SP/G            HT/PER
                 (UTC)          (F)     (DEG/KT/KT) (MB)    (FT/S)
PULASKI SHOAL LI 0600            74      90/ 17/ 19 1017.0F
SAND KEY         0550            75      80/ 17/ 19 1017.9F
LONG KEY         0500            74 75   90/ 13/ 14 1018.2F
MOLASSES REEF    0400            75 76   70/ 17/ 19 1018.4
FOWEY ROCKS      0600            74 75   80/ 16/ 18 1018.1F
Buoy 42097       0600                                 N/A     2/ 4

$$




USA.gov is the U.S. government's official web portal to all federal, state and local government web resources and services.